GIA381 WADD-WAHS

Flight info

Callsign GIA381
Flight time 0h 57m
Altitude 32000
Route BLI W33 SBR W16 LASEM
Aircraft B738/M-SDE2E3FGHIRWXY/LB1

Departure

Time 2026-05-06 12:14
Airport Denpasar I Gusti Ngurah Rai International Airport (WADD)

Arrival

Time 2026-05-06 13:11
Airport Jenderal Ahmad Yani Airport (WAHS)
Time Latitude Longitude Altitude Speed Heading
2026-05-06 11:55 -8.74567 115.16343 22 ft 0 kts 358°
2026-05-06 12:05 -8.74568 115.16343 22 ft 0 kts 358°
2026-05-06 12:05 -8.74573 115.16343 22 ft 2 kts 359°
2026-05-06 12:05 -8.74587 115.16344 21 ft 2 kts 358°
2026-05-06 12:06 -8.74602 115.16344 21 ft 2 kts 358°
2026-05-06 12:06 -8.74617 115.16344 21 ft 2 kts 358°
2026-05-06 12:06 -8.74632 115.16344 21 ft 2 kts 358°
2026-05-06 12:06 -8.74647 115.16345 21 ft 2 kts 358°
2026-05-06 12:07 -8.74660 115.16345 21 ft 2 kts 355°
2026-05-06 12:07 -8.74674 115.16350 21 ft 2 kts 328°
2026-05-06 12:07 -8.74685 115.16360 20 ft 2 kts 308°
2026-05-06 12:07 -8.74692 115.16373 20 ft 2 kts 286°
2026-05-06 12:08 -8.74694 115.16385 20 ft 1 kts 268°
2026-05-06 12:08 -8.74693 115.16398 20 ft 0 kts 263°
2026-05-06 12:08 -8.74692 115.16402 20 ft 0 kts 268°
2026-05-06 12:10 -8.74694 115.16370 20 ft 9 kts 268°
2026-05-06 12:10 -8.74698 115.16277 19 ft 16 kts 267°
2026-05-06 12:10 -8.74702 115.16157 17 ft 17 kts 269°
2026-05-06 12:11 -8.74710 115.16013 15 ft 24 kts 266°
2026-05-06 12:11 -8.74715 115.15833 13 ft 25 kts 268°
2026-05-06 12:11 -8.74723 115.15653 11 ft 23 kts 268°
2026-05-06 12:11 -8.74729 115.15492 11 ft 16 kts 268°
2026-05-06 12:12 -8.74770 115.15408 11 ft 13 kts 202°
2026-05-06 12:12 -8.74861 115.15402 11 ft 12 kts 175°
2026-05-06 12:12 -8.74895 115.15430 12 ft 5 kts 97°
2026-05-06 12:12 -8.74895 115.15440 12 ft 0 kts 89°
2026-05-06 12:13 -8.74895 115.15444 12 ft 4 kts 89°
2026-05-06 12:13 -8.74890 115.15618 13 ft 58 kts 88°
2026-05-06 12:13 -8.74862 115.16261 18 ft 121 kts 88°
2026-05-06 12:13 -8.74818 115.17287 43 ft 168 kts 85°
2026-05-06 12:14 -8.74720 115.18452 663 ft 165 kts 82°
2026-05-06 12:14 -8.74630 115.19592 1339 ft 169 kts 91°
2026-05-06 12:14 -8.74646 115.20808 2010 ft 181 kts 91°
2026-05-06 12:14 -8.74629 115.22115 2638 ft 196 kts 89°
2026-05-06 12:15 -8.74510 115.23538 3264 ft 214 kts 76°
2026-05-06 12:15 -8.73675 115.24849 3855 ft 239 kts 39°
2026-05-06 12:15 -8.72090 115.25461 4622 ft 259 kts
2026-05-06 12:15 -8.70280 115.25078 5435 ft 277 kts 333°
2026-05-06 12:16 -8.68799 115.23864 6427 ft 283 kts 315°
2026-05-06 12:16 -8.67505 115.22337 7311 ft 290 kts 311°
2026-05-06 12:16 -8.66224 115.20741 8232 ft 295 kts 311°
2026-05-06 12:16 -8.64919 115.19167 9100 ft 300 kts 312°
2026-05-06 12:17 -8.63543 115.17570 10016 ft 303 kts 313°
2026-05-06 12:17 -8.62134 115.15971 10745 ft 312 kts 313°
2026-05-06 12:17 -8.60652 115.14303 11308 ft 327 kts 312°
2026-05-06 12:17 -8.59085 115.12540 11851 ft 342 kts 312°
2026-05-06 12:18 -8.57460 115.10709 12375 ft 357 kts 311°
2026-05-06 12:18 -8.55785 115.08819 13104 ft 363 kts 311°
2026-05-06 12:18 -8.54103 115.06919 13831 ft 368 kts 311°
2026-05-06 12:18 -8.52381 115.04975 14619 ft 371 kts 311°
2026-05-06 12:19 -8.50658 115.03030 15366 ft 375 kts 311°
2026-05-06 12:19 -8.48912 115.01073 15839 ft 379 kts 311°
2026-05-06 12:19 -8.47055 114.99146 16011 ft 380 kts 316°
2026-05-06 12:19 -8.45021 114.97454 16019 ft 379 kts 323°
2026-05-06 12:20 -8.42811 114.95953 15901 ft 379 kts 327°
2026-05-06 12:20 -8.40689 114.94417 15891 ft 375 kts 316°
2026-05-06 12:20 -8.38937 114.92465 15901 ft 376 kts 307°
2026-05-06 12:20 -8.37414 114.90314 15905 ft 376 kts 303°
2026-05-06 12:21 -8.35957 114.88119 15912 ft 376 kts 303°
2026-05-06 12:21 -8.34479 114.85938 15920 ft 376 kts 304°
2026-05-06 12:21 -8.32964 114.83803 15926 ft 376 kts 305°
2026-05-06 12:21 -8.31382 114.81661 15932 ft 376 kts 306°
2026-05-06 12:22 -8.29802 114.79575 15944 ft 376 kts 307°
2026-05-06 12:22 -8.28207 114.77491 15955 ft 376 kts 307°
2026-05-06 12:22 -8.26600 114.75401 15966 ft 376 kts 307°
2026-05-06 12:22 -8.24982 114.73297 15966 ft 376 kts 307°
2026-05-06 12:23 -8.23392 114.71227 15952 ft 375 kts 307°
2026-05-06 12:23 -8.21805 114.69157 15943 ft 375 kts 307°
2026-05-06 12:23 -8.20206 114.67069 15934 ft 375 kts 307°
2026-05-06 12:23 -8.18610 114.64984 15925 ft 375 kts 307°
2026-05-06 12:24 -8.17008 114.62891 15920 ft 375 kts 307°
2026-05-06 12:24 -8.15403 114.60792 15911 ft 375 kts 307°
2026-05-06 12:24 -8.13807 114.58708 15904 ft 375 kts 307°
2026-05-06 12:24 -8.12225 114.56642 15894 ft 375 kts 307°
2026-05-06 12:25 -8.10618 114.54544 15886 ft 376 kts 307°
2026-05-06 12:25 -8.09007 114.52442 15886 ft 376 kts 307°
2026-05-06 12:25 -8.07418 114.50369 15877 ft 376 kts 307°
2026-05-06 12:25 -8.05811 114.48270 15881 ft 377 kts 307°
2026-05-06 12:26 -8.04209 114.46181 15891 ft 376 kts 307°
2026-05-06 12:26 -8.02606 114.44089 15912 ft 376 kts 307°
2026-05-06 12:26 -8.01005 114.42001 15919 ft 376 kts 307°
2026-05-06 12:26 -7.99386 114.39890 15931 ft 376 kts 307°
2026-05-06 12:27 -7.97786 114.37803 15944 ft 376 kts 307°
2026-05-06 12:27 -7.96185 114.35716 15946 ft 376 kts 307°
2026-05-06 12:27 -7.94600 114.33649 15957 ft 376 kts 307°
2026-05-06 12:27 -7.92982 114.31539 15957 ft 376 kts 307°
2026-05-06 12:28 -7.91381 114.29452 15952 ft 376 kts 307°
2026-05-06 12:28 -7.89786 114.27375 15956 ft 376 kts 307°
2026-05-06 12:28 -7.88170 114.25269 16095 ft 387 kts 307°
2026-05-06 12:28 -7.86538 114.23142 17054 ft 382 kts 307°
2026-05-06 12:29 -7.84922 114.21038 17775 ft 384 kts 307°
2026-05-06 12:29 -7.83268 114.18883 18451 ft 387 kts 307°
2026-05-06 12:29 -7.81625 114.16743 19083 ft 391 kts 307°
2026-05-06 12:29 -7.79954 114.14569 19693 ft 395 kts 307°
2026-05-06 12:30 -7.78259 114.12364 20349 ft 397 kts 307°
2026-05-06 12:30 -7.76604 114.10154 20924 ft 401 kts 305°
2026-05-06 12:30 -7.75096 114.07784 21484 ft 405 kts 300°
2026-05-06 12:30 -7.73763 114.05286 22062 ft 408 kts 297°
2026-05-06 12:31 -7.72512 114.02689 22613 ft 412 kts 295°
2026-05-06 12:31 -7.71312 114.00064 23187 ft 414 kts 294°
2026-05-06 12:31 -7.70125 113.97413 23718 ft 418 kts 294°
2026-05-06 12:31 -7.68925 113.94722 24251 ft 422 kts 294°
2026-05-06 12:32 -7.67718 113.92025 24726 ft 426 kts 294°
2026-05-06 12:32 -7.66491 113.89296 25243 ft 429 kts 294°
2026-05-06 12:32 -7.65249 113.86545 25706 ft 433 kts 294°
2026-05-06 12:32 -7.64005 113.83803 26181 ft 437 kts 294°
2026-05-06 12:33 -7.62732 113.81002 26668 ft 440 kts 294°
2026-05-06 12:33 -7.61450 113.78190 27122 ft 443 kts 294°
2026-05-06 12:33 -7.60163 113.75368 27570 ft 447 kts 294°
2026-05-06 12:33 -7.58849 113.72490 28013 ft 450 kts 294°
2026-05-06 12:34 -7.57544 113.69634 28429 ft 454 kts 294°
2026-05-06 12:34 -7.56218 113.66734 28937 ft 455 kts 294°
2026-05-06 12:34 -7.54888 113.63822 29387 ft 458 kts 294°
2026-05-06 12:34 -7.53576 113.60953 30150 ft 453 kts 294°
2026-05-06 12:35 -7.52272 113.58103 30821 ft 450 kts 294°
2026-05-06 12:35 -7.50958 113.55230 31422 ft 448 kts 293°
2026-05-06 12:35 -7.49653 113.52377 31858 ft 449 kts 293°
2026-05-06 12:35 -7.48331 113.49487 31895 ft 452 kts 293°
2026-05-06 12:36 -7.45736 113.43814 31884 ft 447 kts 293°
2026-05-06 12:36 -7.43121 113.38100 31885 ft 449 kts 294°
2026-05-06 12:37 -7.40510 113.32395 31880 ft 448 kts 294°
2026-05-06 12:37 -7.37892 113.26678 31867 ft 450 kts 294°
2026-05-06 12:38 -7.35282 113.20980 31871 ft 449 kts 294°
2026-05-06 12:38 -7.32653 113.15246 31876 ft 449 kts 294°
2026-05-06 12:39 -7.30043 113.09553 31857 ft 450 kts 294°
2026-05-06 12:39 -7.27406 113.03806 31859 ft 450 kts 294°
2026-05-06 12:40 -7.24796 112.98119 31840 ft 451 kts 294°
2026-05-06 12:40 -7.22159 112.92377 31838 ft 451 kts 294°
2026-05-06 12:41 -7.19526 112.86644 31848 ft 451 kts 294°
2026-05-06 12:41 -7.16901 112.80933 31839 ft 450 kts 294°
2026-05-06 12:42 -7.14262 112.75193 31843 ft 450 kts 294°
2026-05-06 12:42 -7.11642 112.69495 31840 ft 451 kts 294°
2026-05-06 12:43 -7.09013 112.63778 31839 ft 450 kts 294°
2026-05-06 12:43 -7.06379 112.58054 31851 ft 448 kts 294°
2026-05-06 12:44 -7.03753 112.52350 31845 ft 449 kts 294°
2026-05-06 12:44 -7.01140 112.46675 31843 ft 447 kts 294°
2026-05-06 12:45 -6.98518 112.40983 31842 ft 450 kts 295°
2026-05-06 12:46 -6.94586 112.32451 31843 ft 452 kts 295°
2026-05-06 12:46 -6.91948 112.26727 31843 ft 452 kts 295°
2026-05-06 12:47 -6.89298 112.20982 31845 ft 452 kts 295°
2026-05-06 12:47 -6.86662 112.15271 31848 ft 448 kts 295°
2026-05-06 12:48 -6.84035 112.09582 31849 ft 449 kts 295°
2026-05-06 12:48 -6.81398 112.03871 31844 ft 452 kts 295°
2026-05-06 12:49 -6.78753 111.98145 31845 ft 452 kts 295°
2026-05-06 12:49 -6.76101 111.92406 31547 ft 453 kts 295°
2026-05-06 12:49 -6.74786 111.89562 31289 ft 452 kts 295°
2026-05-06 12:50 -6.73447 111.86666 31027 ft 451 kts 294°
2026-05-06 12:50 -6.72130 111.83819 30770 ft 452 kts 294°
2026-05-06 12:50 -6.70796 111.80936 30508 ft 453 kts 294°
2026-05-06 12:50 -6.69481 111.78094 30250 ft 452 kts 294°
2026-05-06 12:51 -6.68160 111.75240 29990 ft 450 kts 294°
2026-05-06 12:51 -6.66847 111.72400 29733 ft 448 kts 294°
2026-05-06 12:51 -6.65845 111.69422 29465 ft 446 kts 279°
2026-05-06 12:51 -6.65689 111.66357 29214 ft 442 kts 264°
2026-05-06 12:52 -6.66179 111.63307 28962 ft 440 kts 256°
2026-05-06 12:52 -6.66914 111.60333 28704 ft 437 kts 254°
2026-05-06 12:52 -6.67730 111.57407 28450 ft 436 kts 253°
2026-05-06 12:52 -6.68564 111.54456 28197 ft 434 kts 253°
2026-05-06 12:53 -6.69364 111.51539 27950 ft 433 kts 254°
2026-05-06 12:53 -6.70120 111.48657 27707 ft 432 kts 254°
2026-05-06 12:53 -6.70856 111.45731 27459 ft 430 kts 255°
2026-05-06 12:53 -6.71565 111.42804 27213 ft 429 kts 256°
2026-05-06 12:54 -6.72257 111.39874 26965 ft 428 kts 256°
2026-05-06 12:54 -6.72928 111.36993 26721 ft 426 kts 256°
2026-05-06 12:54 -6.73594 111.34103 26365 ft 421 kts 256°
2026-05-06 12:54 -6.74250 111.31242 25865 ft 417 kts 257°
2026-05-06 12:55 -6.74891 111.28437 25299 ft 415 kts 257°
2026-05-06 12:55 -6.75536 111.25611 24718 ft 414 kts 257°
2026-05-06 12:55 -6.76178 111.22799 24123 ft 413 kts 257°
2026-05-06 12:55 -6.76819 111.19989 23539 ft 411 kts 257°
2026-05-06 12:56 -6.77455 111.17204 22958 ft 411 kts 258°
2026-05-06 12:56 -6.78095 111.14398 22372 ft 410 kts 258°
2026-05-06 12:56 -6.78732 111.11603 21796 ft 409 kts 258°
2026-05-06 12:56 -6.79360 111.08845 21223 ft 408 kts 258°
2026-05-06 12:57 -6.79991 111.06072 20634 ft 408 kts 258°
2026-05-06 12:57 -6.80623 111.03297 20039 ft 407 kts 258°
2026-05-06 12:57 -6.81245 111.00562 19452 ft 406 kts 257°
2026-05-06 12:57 -6.81880 110.97771 18845 ft 404 kts 257°
2026-05-06 12:58 -6.82500 110.95050 18258 ft 403 kts 257°
2026-05-06 12:58 -6.83125 110.92299 17667 ft 400 kts 257°
2026-05-06 12:58 -6.83736 110.89608 17080 ft 398 kts 257°
2026-05-06 12:58 -6.84355 110.86887 16492 ft 396 kts 257°
2026-05-06 12:59 -6.84937 110.84170 15881 ft 395 kts 258°
2026-05-06 12:59 -6.85450 110.81475 15289 ft 392 kts 259°
2026-05-06 12:59 -6.85923 110.78816 14702 ft 390 kts 259°
2026-05-06 12:59 -6.86390 110.76147 14112 ft 388 kts 259°
2026-05-06 13:00 -6.86859 110.73485 13525 ft 385 kts 259°
2026-05-06 13:00 -6.87331 110.70837 12934 ft 383 kts 259°
2026-05-06 13:00 -6.87806 110.68211 12453 ft 377 kts 259°
2026-05-06 13:00 -6.88275 110.65640 11961 ft 373 kts 259°
2026-05-06 13:01 -6.88742 110.63089 11408 ft 370 kts 259°
2026-05-06 13:01 -6.89206 110.60566 10844 ft 368 kts 259°
2026-05-06 13:01 -6.89624 110.58025 10438 ft 361 kts 263°
2026-05-06 13:01 -6.89657 110.55569 10255 ft 346 kts 277°
2026-05-06 13:02 -6.88967 110.53336 10135 ft 330 kts 296°
2026-05-06 13:02 -6.87852 110.51321 9770 ft 324 kts 302°
2026-05-06 13:02 -6.86657 110.49414 9383 ft 322 kts 303°
2026-05-06 13:02 -6.85472 110.47526 9057 ft 318 kts 303°
2026-05-06 13:03 -6.84332 110.45676 8853 ft 304 kts 302°
2026-05-06 13:03 -6.83261 110.43908 8593 ft 290 kts 302°
2026-05-06 13:03 -6.82236 110.42188 8187 ft 283 kts 301°
2026-05-06 13:03 -6.81238 110.40499 7590 ft 284 kts 301°
2026-05-06 13:04 -6.80228 110.38782 6967 ft 285 kts 301°
2026-05-06 13:04 -6.79224 110.37071 6366 ft 285 kts 301°
2026-05-06 13:04 -6.78210 110.35342 5768 ft 285 kts 301°
2026-05-06 13:04 -6.77210 110.33639 5149 ft 285 kts 301°
2026-05-06 13:05 -6.76242 110.31900 4536 ft 285 kts 296°
2026-05-06 13:05 -6.75649 110.30003 4152 ft 284 kts 275°
2026-05-06 13:05 -6.75953 110.28096 3918 ft 277 kts 243°
2026-05-06 13:05 -6.77130 110.26592 3685 ft 268 kts 220°
2026-05-06 13:06 -6.78550 110.25423 3444 ft 263 kts 217°
2026-05-06 13:06 -6.79967 110.24284 3216 ft 258 kts 218°
2026-05-06 13:06 -6.81404 110.23260 3071 ft 246 kts 208°
2026-05-06 13:06 -6.82965 110.22730 3042 ft 226 kts 180°
2026-05-06 13:07 -6.84420 110.23022 3020 ft 203 kts 154°
2026-05-06 13:07 -6.85592 110.23698 3020 ft 183 kts 139°
2026-05-06 13:07 -6.86464 110.24563 2899 ft 173 kts 124°
2026-05-06 13:07 -6.87129 110.25561 2694 ft 172 kts 122°
2026-05-06 13:08 -6.87873 110.26522 2470 ft 173 kts 127°
2026-05-06 13:08 -6.88656 110.27435 2243 ft 169 kts 128°
2026-05-06 13:08 -6.89397 110.28297 2004 ft 160 kts 127°
2026-05-06 13:08 -6.90098 110.29126 1823 ft 152 kts 127°
2026-05-06 13:09 -6.90790 110.29942 1653 ft 155 kts 127°
2026-05-06 13:09 -6.91482 110.30756 1411 ft 150 kts 127°
2026-05-06 13:09 -6.92168 110.31564 1240 ft 151 kts 127°
2026-05-06 13:09 -6.92848 110.32362 1041 ft 150 kts 128°
2026-05-06 13:10 -6.93527 110.33162 848 ft 151 kts 128°
2026-05-06 13:10 -6.94204 110.33959 659 ft 150 kts 128°
2026-05-06 13:10 -6.94888 110.34763 470 ft 149 kts 128°
2026-05-06 13:10 -6.95564 110.35551 283 ft 148 kts 129°
2026-05-06 13:11 -6.96228 110.36325 96 ft 146 kts 128°
2026-05-06 13:11 -6.96837 110.37051 53 ft 106 kts 129°
2026-05-06 13:11 -6.97157 110.37429 53 ft 54 kts 130°
2026-05-06 13:11 -6.97319 110.37621 53 ft 20 kts 130°
2026-05-06 13:12 -6.97387 110.37717 53 ft 2 kts 144°
2026-05-06 13:12 -6.97392 110.37713 53 ft 1 kts 258°
2026-05-06 13:12 -6.97370 110.37683 53 ft 8 kts 308°
2026-05-06 13:12 -6.97319 110.37623 53 ft 14 kts 310°
2026-05-06 13:13 -6.97244 110.37536 53 ft 17 kts 309°
2026-05-06 13:13 -6.97171 110.37447 53 ft 14 kts 310°
2026-05-06 13:13 -6.97116 110.37414 53 ft 8 kts
2026-05-06 13:13 -6.97065 110.37446 53 ft 8 kts 40°
2026-05-06 13:14 -6.97020 110.37485 53 ft 8 kts 41°
2026-05-06 13:14 -6.96976 110.37524 53 ft 8 kts 41°
2026-05-06 13:14 -6.96931 110.37557 52 ft 7 kts 23°
2026-05-06 13:14 -6.96885 110.37544 52 ft 7 kts 306°
2026-05-06 13:15 -6.96859 110.37502 52 ft 7 kts 306°
2026-05-06 13:15 -6.96829 110.37464 52 ft 6 kts 309°
2026-05-06 13:15 -6.96799 110.37430 52 ft 6 kts 310°
2026-05-06 13:15 -6.96766 110.37426 52 ft 5 kts 28°
2026-05-06 13:16 -6.96743 110.37444 52 ft 1 kts 41°
2026-05-06 13:16 -6.96736 110.37450 52 ft 0 kts 41°
2026-05-06 13:16 -6.96733 110.37452 52 ft 0 kts 40°
2026-05-06 13:16 -6.96726 110.37458 52 ft 1 kts 40°
2026-05-06 13:17 -6.96724 110.37460 52 ft 0 kts 40°